When you browse on this site, cookies collect data to enhance your experience and personalize the content and advertising you see.
Visit our Privacy Policy to learn more. By continuing to use the site, you agree to this use of cookies and data.
  • In Romania
  • List of Countries
  • For 7 days
  • Water Temperature
  • Satellite Maps
  • Weather Map
  • Weather Widgets
  • user-avatar
    Login

    Hourly Weather As-Salt

    Today, 26 March, Tuesday

    Time Temperature Precipitation Wind Pressure Humidity
    00:00 +8°C° 0 mm 3 mps 708 mmHg 68%
    01:00 +8°C° 0 mm 2 mps 708 mmHg 70%
    02:00 +8°C° 0 mm 3 mps 708 mmHg 73%
    03:00 +7°C° 0 mm 3 mps 709 mmHg 74%
    04:00 +7°C° 0 mm 2 mps 709 mmHg 75%
    05:00 +7°C° 0 mm 2 mps 709 mmHg 76%
    06:00 +8°C° 0 mm 3 mps 710 mmHg 71%
    07:00 +9°C° 0 mm 3 mps 710 mmHg 67%
    08:00 +10°C° 0 mm 3 mps 711 mmHg 62%
    09:00 +11°C° 0 mm 4 mps 711 mmHg 59%
    10:00 +12°C° 0 mm 4 mps 711 mmHg 55%
    11:00 +13°C° 0 mm 4 mps 711 mmHg 52%
    12:00 +13°C° 0 mm 4 mps 711 mmHg 50%
    13:00 +14°C° 0 mm 4 mps 711 mmHg 48%
    14:00 +14°C° 0 mm 5 mps 711 mmHg 47%
    15:00 +14°C° 0 mm 4 mps 711 mmHg 49%
    16:00 +13°C° 0 mm 4 mps 711 mmHg 50%
    17:00 +13°C° 0 mm 4 mps 711 mmHg 52%
    18:00 +12°C° 0 mm 3 mps 711 mmHg 55%
    19:00 +12°C° 0 mm 2 mps 712 mmHg 58%
    20:00 +12°C° 0 mm 2 mps 712 mmHg 62%
    21:00 +11°C° 0 mm 1 mps 712 mmHg 63%
    22:00 +11°C° 0 mm 1 mps 712 mmHg 64%
    23:00 +11°C° 0 mm 1 mps 713 mmHg 64%

    Tomorrow, 27 March, Wednesday

    Time Temperature Precipitation Wind Pressure Humidity
    00:00 +11°C° 0 mm 1 mps 713 mmHg 65%
    01:00 +11°C° 0 mm 1 mps 713 mmHg 66%
    02:00 +9°C° 0 mm 2 mps 713 mmHg 67%
    03:00 +9°C° 0 mm 2 mps 713 mmHg 68%
    04:00 +9°C° 0 mm 2 mps 713 mmHg 68%
    05:00 +9°C° 0 mm 2 mps 713 mmHg 69%
    06:00 +10°C° 0 mm 2 mps 713 mmHg 64%
    07:00 +11°C° 0 mm 3 mps 714 mmHg 59%
    08:00 +12°C° 0 mm 4 mps 714 mmHg 54%
    09:00 +13°C° 0 mm 4 mps 714 mmHg 51%
    10:00 +14°C° 0 mm 5 mps 715 mmHg 49%
    11:00 +15°C° 0 mm 5 mps 715 mmHg 47%
    12:00 +15°C° 0 mm 5 mps 715 mmHg 47%
    13:00 +16°C° 0 mm 6 mps 715 mmHg 46%
    14:00 +16°C° 0 mm 6 mps 715 mmHg 46%
    15:00 +15°C° 0 mm 6 mps 715 mmHg 50%
    16:00 +15°C° 0 mm 5 mps 715 mmHg 53%
    17:00 +14°C° 0 mm 5 mps 715 mmHg 57%
    18:00 +13°C° 0 mm 4 mps 715 mmHg 61%
    19:00 +12°C° 0 mm 3 mps 715 mmHg 66%
    20:00 +13°C° 0 mm 2 mps 716 mmHg 70%
    21:00 +12°C° 0 mm 1 mps 716 mmHg 72%
    22:00 +12°C° 0 mm 1 mps 716 mmHg 74%
    23:00 +12°C° 0 mm 1 mps 716 mmHg 75%

    Day after tomorrow, 28 March, Thursday

    Time Temperature Precipitation Wind Pressure Humidity
    00:00 +11°C° 0 mm 1 mps 715 mmHg 76%
    01:00 +11°C° 0 mm 1 mps 715 mmHg 76%
    02:00 +11°C° 0 mm 1 mps 715 mmHg 76%
    03:00 +10°C° 0 mm 1 mps 715 mmHg 77%
    04:00 +9°C° 0 mm 0 mps 715 mmHg 78%
    05:00 +9°C° 0 mm 0 mps 715 mmHg 80%
    06:00 +10°C° 0 mm 0 mps 715 mmHg 73%
    07:00 +11°C° 0 mm 0 mps 716 mmHg 65%
    08:00 +14°C° 0 mm 1 mps 716 mmHg 58%
    09:00 +15°C° 0 mm 1 mps 716 mmHg 51%
    10:00 +16°C° 0 mm 2 mps 716 mmHg 43%
    11:00 +17°C° 0 mm 2 mps 716 mmHg 36%
    12:00 +18°C° 0 mm 2 mps 716 mmHg 34%
    13:00 +19°C° 0 mm 2 mps 715 mmHg 31%
    14:00 +20°C° 0 mm 3 mps 715 mmHg 29%
    15:00 +19°C° 0 mm 3 mps 714 mmHg 32%
    16:00 +19°C° 0 mm 3 mps 714 mmHg 35%
    17:00 +18°C° 0 mm 3 mps 714 mmHg 39%
    18:00 +17°C° 0 mm 2 mps 714 mmHg 46%
    19:00 +16°C° 0 mm 2 mps 714 mmHg 54%
    20:00 +15°C° 0 mm 2 mps 713 mmHg 62%
    21:00 +15°C° 0 mm 1 mps 713 mmHg 65%
    22:00 +15°C° 0 mm 1 mps 713 mmHg 67%
    23:00 +15°C° 0 mm 1 mps 713 mmHg 70%

    29 March, Friday

    Time Temperature Precipitation Wind Pressure Humidity
    00:00 +14°C° 0 mm 1 mps 713 mmHg 70%
    01:00 +14°C° 0 mm 1 mps 712 mmHg 70%
    02:00 +14°C° 0 mm 1 mps 712 mmHg 70%
    03:00 +14°C° 0 mm 1 mps 712 mmHg 68%
    04:00 +14°C° 0 mm 1 mps 711 mmHg 67%
    05:00 +13°C° 0 mm 1 mps 711 mmHg 65%
    06:00 +15°C° 0 mm 2 mps 711 mmHg 58%
    07:00 +16°C° 0 mm 2 mps 711 mmHg 51%
    08:00 +17°C° 0 mm 2 mps 711 mmHg 45%
    09:00 +18°C° 0 mm 3 mps 711 mmHg 38%
    10:00 +20°C° 0 mm 3 mps 711 mmHg 31%
    11:00 +21°C° 0 mm 4 mps 711 mmHg 24%
    12:00 +21°C° 0.1 mm 3 mps 710 mmHg 25%
    13:00 +20°C° 0.1 mm 3 mps 710 mmHg 27%
    14:00 +20°C° 0.1 mm 2 mps 709 mmHg 28%
    15:00 +20°C° 0 mm 2 mps 709 mmHg 33%
    16:00 +19°C° 0 mm 2 mps 708 mmHg 39%
    17:00 +19°C° 0 mm 2 mps 708 mmHg 44%
    18:00 +18°C° 0.1 mm 2 mps 707 mmHg 47%
    19:00 +18°C° 0.1 mm 2 mps 707 mmHg 51%
    20:00 +17°C° 0.1 mm 2 mps 707 mmHg 54%
    21:00 +17°C° 0 mm 2 mps 707 mmHg 55%
    22:00 +16°C° 0 mm 2 mps 707 mmHg 56%
    23:00 +16°C° 0 mm 2 mps 706 mmHg 57%

    30 March, Saturday

    Time Temperature Precipitation Wind Pressure Humidity
    00:00 +15°C° 0.1 mm 2 mps 706 mmHg 60%
    01:00 +15°C° 0.1 mm 2 mps 706 mmHg 62%
    02:00 +14°C° 0.1 mm 3 mps 705 mmHg 65%
    03:00 +14°C° 0.9 mm 2 mps 706 mmHg 72%
    04:00 +14°C° 0.9 mm 2 mps 706 mmHg 78%
    05:00 +13°C° 0.9 mm 1 mps 706 mmHg 85%
    06:00 +12°C° 0.3 mm 3 mps 706 mmHg 80%
    07:00 +13°C° 0.3 mm 4 mps 707 mmHg 76%
    08:00 +13°C° 0.3 mm 5 mps 707 mmHg 71%
    09:00 +14°C° 0 mm 6 mps 707 mmHg 65%
    10:00 +14°C° 0 mm 7 mps 707 mmHg 59%
    11:00 +15°C° 0 mm 7 mps 707 mmHg 54%
    12:00 +16°C° 0 mm 8 mps 706 mmHg 50%
    13:00 +16°C° 0 mm 8 mps 706 mmHg 46%
    14:00 +17°C° 0 mm 8 mps 706 mmHg 43%
    15:00 +16°C° 0 mm 8 mps 706 mmHg 44%
    16:00 +16°C° 0 mm 8 mps 705 mmHg 45%
    17:00 +15°C° 0 mm 8 mps 705 mmHg 47%
    18:00 +14°C° 0 mm 7 mps 706 mmHg 56%
    19:00 +13°C° 0 mm 5 mps 706 mmHg 65%
    20:00 +12°C° 0 mm 4 mps 706 mmHg 74%
    21:00 +12°C° 0.1 mm 4 mps 706 mmHg 76%
    22:00 +12°C° 0.1 mm 4 mps 706 mmHg 77%
    23:00 +11°C° 0.1 mm 4 mps 706 mmHg 79%

    31 March, Sunday

    Time Temperature Precipitation Wind Pressure Humidity
    00:00 +11°C° 0.2 mm 4 mps 706 mmHg 78%
    01:00 +11°C° 0.2 mm 4 mps 706 mmHg 78%
    02:00 +11°C° 0.2 mm 4 mps 706 mmHg 78%
    03:00 +10°C° 0 mm 4 mps 706 mmHg 79%
    04:00 +10°C° 0 mm 4 mps 706 mmHg 79%
    05:00 +9°C° 0 mm 3 mps 706 mmHg 80%
    06:00 +10°C° 0 mm 4 mps 706 mmHg 74%
    07:00 +10°C° 0 mm 4 mps 706 mmHg 69%
    08:00 +10°C° 0 mm 5 mps 707 mmHg 63%
    09:00 +10°C° 0 mm 5 mps 707 mmHg 60%
    10:00 +11°C° 0 mm 6 mps 707 mmHg 58%
    11:00 +11°C° 0 mm 7 mps 707 mmHg 56%
    12:00 +11°C° 0.1 mm 6 mps 707 mmHg 56%
    13:00 +11°C° 0.1 mm 6 mps 706 mmHg 55%
    14:00 +11°C° 0.1 mm 6 mps 706 mmHg 55%
    15:00 +11°C° 0.1 mm 6 mps 706 mmHg 54%
    16:00 +11°C° 0.1 mm 6 mps 707 mmHg 53%
    17:00 +11°C° 0.1 mm 6 mps 707 mmHg 52%
    18:00 +10°C° 0 mm 5 mps 707 mmHg 54%
    19:00 +11°C° 0 mm 4 mps 707 mmHg 56%
    20:00 +10°C° 0 mm 3 mps 707 mmHg 58%
    21:00 +10°C° 0 mm 4 mps 707 mmHg 62%
    22:00 +8°C° 0 mm 4 mps 707 mmHg 65%
    23:00 +8°C° 0 mm 4 mps 707 mmHg 69%
    Show more